Location: Casteau
(50.5142°N, 4.0161°E)
Time: 18:09:42
(UTC+00:00)

S-56A Canister/Altair - Pass Details

Date: 04 August 2021
Orbit: 632 x 2500 km, 38.9° (Epoch: 20 September)

Event Time Altitude Azimuth Distance (km) Brightness Sun altitude
Rises 19:39:42 0° 279° (W) 6,136 13.6 -3.1°
Reaches altitude 10° 19:44:38 10° 269° (W) 5,168 12.7 -3.8°
Maximum altitude 19:55:40 26° 222° (SW) 3,839 11.2 -5.2°
Drops below altitude 10° 20:05:30 10° 173° (S) 4,551 11.1 -6.5°
Sets 20:09:33 0° 161° (SSE) 5,290 11.3 -7.0°
